Tracking 18840 objects as of 20-November-2017
HD Live streaming from Space Station
objects crossing your sky now

NIMBUS 2 DEB

Track NIMBUS 2 DEB now!
10-day predictions


NORAD ID: 24956
Int'l Code: 1966-040C
Perigee: 1,033.2 km
Apogee: 1,097.8 km
Inclination: 100.5 °
Period: 106.4 minutes
Semi major axis: 7436 km
RCS: 0.027 m2 (small)
Launch date: May 15, 1966
Source: United States (US)
Launch site: AIR FORCE WESTERN TEST RANGE (AFWTR)

Note: This is SATELLITE DEBRIS
aabbcc
Your satellite tracking list
Your tracking list is empty




NASA's NSSDC Master Catalog

Two Line Element Set (TLE):
1 24956U 66040C   17323.80620170  .00000975  00000-0  15073-2 0  9991
2 24956 100.4705 268.8711 0043452 127.3483 286.6999 13.53779740515325
Source of the keplerian elements: AFSPC